Location: ???????
(55.4362°N, 38.1183°E)
Time: 06:08:41
(UTC+00:00)

HuskySat-1 - Visible Passes

Search period start: 05 December 2021 00:00
Search period end: 15 December 2021 00:00
Orbit: 443 x 456 km, 51.6° (Epoch: 04 December)

Date Brightness Start Highest point End Pass type
(mag) Time Alt. Az. Time Alt. Az. Time Alt. Az.
05 Dec ? 14:54:45 10° SSW 14:57:26 20° SSE 14:58:25 18° SE visible
05 Dec ? 16:30:59 10° WSW 16:32:00 17° SW 16:32:00 17° SW visible
06 Dec ? 14:17:18 10° S 14:19:43 17° SSE 14:22:06 10° ESE visible
06 Dec ? 15:53:12 10° WSW 15:55:41 32° SSW 15:55:41 32° SSW visible
07 Dec ? 13:39:58 10° S 13:41:58 14° SE 13:43:58 10° ESE visible
07 Dec ? 15:15:27 10° SW 15:18:45 35° SSE 15:19:20 33° SE visible
07 Dec ? 16:52:26 10° WSW 16:52:55 13° WSW 16:52:55 13° WSW visible
08 Dec ? 14:37:42 10° SW 14:40:56 32° SSE 14:42:57 18° ESE visible
08 Dec ? 16:14:35 10° WSW 16:16:32 28° WSW 16:16:32 28° WSW visible
09 Dec ? 14:00:00 10° SW 14:03:06 28° SSE 14:06:14 10° E visible
09 Dec ? 15:36:43 10° WSW 15:40:08 45° S 15:40:08 45° S visible
10 Dec ? 14:58:51 10° WSW 15:02:17 44° S 15:03:44 28° ESE visible
10 Dec ? 16:36:06 10° W 16:37:19 19° WSW 16:37:19 19° WSW visible
11 Dec ? 14:20:59 10° WSW 14:24:24 43° S 14:27:20 13° ESE visible
11 Dec ? 15:58:09 10° W 16:00:55 36° SW 16:00:55 36° SW visible
12 Dec ? 13:43:06 10° WSW 13:46:29 40° S 13:49:52 10° E visible
12 Dec ? 15:20:13 10° W 15:23:38 42° S 15:24:33 34° SSE visible
12 Dec ? 16:57:49 10° W 16:58:08 12° WSW 16:58:08 12° WSW visible
13 Dec ? 14:42:16 10° WSW 14:45:42 44° S 14:48:13 16° ESE visible
13 Dec ? 16:19:45 10° W 16:21:48 22° SW 16:21:48 22° SW visible
14 Dec ? 14:04:19 10° WSW 14:07:45 45° S 14:11:12 10° ESE visible
14 Dec ? 15:41:43 10° W 15:44:48 27° SSW 15:45:32 25° S visible
